Location: Newark
(49.3000°N, 9.4667°E)
Time: 12:45:51
(UTC+00:00)

Tiros 1 - Pass Details

Date: 02 June 2019
Orbit: 631 x 664 km, 48.4° (Epoch: 24 June)

Event Time Altitude Azimuth Distance (km) Brightness Sun altitude
Rises 11:08:08 0° 282° (WNW) 2,930 10.4 62.8°
Reaches altitude 10° 11:10:32 10° 276° (W) 2,024 9.8 62.8°
Maximum altitude 11:14:57 45° 205° (SSW) 877 9.4 62.9°
Drops below altitude 10° 11:19:25 10° 133° (SE) 2,037 10.1 62.9°
Sets 11:21:50 0° 127° (SE) 2,950 10.8 62.9°
